Location: Columbia
(38.9520°N, 92.3340°W)
Time: 18:41:27
(UTC-05:00)

Iridium 15 - Visible Passes

Search period start: 03 July 2015 00:00
Search period end: 13 July 2015 00:00
Orbit: 776 x 779 km, 86.4° (Epoch: 03 July)

Date Brightness Start Highest point End Pass type
(mag) Time Alt. Az. Time Alt. Az. Time Alt. Az.
03 Jul 8.4 02:38:33 10° ESE 02:41:30 16° E 02:44:42 10° NE visible
03 Jul 6.2 04:18:21 20° SSW 04:21:50 54° W 04:26:56 10° N visible
04 Jul 6.0 03:45:11 25° S 03:48:16 81° E 03:53:30 10° N visible
05 Jul 7.0 03:12:01 23° SE 03:14:49 42° E 03:19:45 10° NNE visible
05 Jul 7.5 04:52:30 12° WSW 04:55:49 20° WNW 04:59:34 10° NNW visible
06 Jul 7.9 02:38:50 16° ESE 02:41:28 23° E 02:45:34 10° NNE visible
06 Jul 6.7 04:19:19 22° SW 04:22:00 37° W 04:26:49 10° NNW visible
07 Jul 8.5 02:06:19 10° E 02:08:11 12° E 02:10:23 10° NE visible
07 Jul 6.0 03:46:08 34° SSW 03:48:22 70° W 03:53:35 10° N visible
08 Jul 6.3 03:12:55 37° SSE 03:14:51 63° E 03:20:01 10° N visible
08 Jul 7.9 04:53:24 10° WSW 04:56:11 14° WNW 04:58:42 10° NW visible
09 Jul 7.3 02:39:42 26° ESE 02:41:27 33° E 02:46:07 10° NNE visible
09 Jul 7.2 04:20:11 20° WSW 04:22:16 26° WNW 04:26:31 10° NNW visible
10 Jul 8.1 02:06:28 16° ESE 02:08:07 18° E 02:11:41 10° NE visible
10 Jul 6.4 03:46:57 36° SW 03:48:31 47° W 03:53:32 10° N visible
11 Jul 5.9 03:13:42 54° S 03:14:55 89° W 03:20:11 10° N visible
12 Jul 6.6 02:40:27 42° ESE 02:41:28 48° E 02:46:29 10° NNE visible
12 Jul 7.6 04:20:56 16° W 04:22:34 18° WNW 04:25:58 10° NW visible
